Altus, OK

8:21 AM CST on February 13, 2016 (GMT -0600)
Altus Municipal

Weather History for KAXS - August, 2013

Change the Weather History Date:

Tuesday, August 20, 2013

  Actual Average (KLTS) Record (KLTS)
Temperature  
Mean Temperature 84 °F -  
Max Temperature 98 °F 94 °F 106 °F (2011)
Min Temperature 70 °F 70 °F 58 °F (2015)
Cooling Degree Days 19    
Growing Degree Days 34 (Base 50)    
Moisture  
Dew Point 58 °F    
Average Humidity 43    
Maximum Humidity 67    
Minimum Humidity 25    
Precipitation  
Precipitation 0.00 in - - ()
Sea Level Pressure  
Sea Level Pressure 30.01 in    
Wind  
Wind Speed 11 mph (SE)    
Max Wind Speed 17 mph    
Max Gust Speed 25 mph    
Visibility 10 miles    
Events      
Averages and records for this station are not official NWS values.
T = Trace of Precipitation, MM = Missing Value Source: NWS Daily Summary

Daily Weather History Graph

Daily Weather History Graph

Search for Another Location

Airport or City:

Trip Planner

Search our weather history database for the weather conditions in past years. The results will help you decide how hot, cold, wet, or windy it might be!

Date:

Astronomy

Aug. 20, 2013 Rise Set
Actual Time 7:01 AM CDT 8:18 PM CDT
Civil Twilight 6:35 AM CDT 8:45 PM CDT
Nautical Twilight 6:03 AM CDT 9:16 PM CDT
Astronomical Twilight 5:31 AM CDT 9:49 PM CDT
Moon 7:54 PM CDT (8/20) 6:32 AM CDT (8/20)
Length of Visible Light 14h 09m
Length of Day
13h 17m
Full, 100% of the Moon is Illuminated
Aug 20
Full
Aug 20
Full
Aug 28
Last Quarter
Sep 5
New
Sep 12
First Quarter

Hourly Weather History & Observations

Time (CDT) Temp. Heat Index Dew Point Humidity Pressure Visibility Wind Dir Wind Speed Gust Speed Precip Events Conditions
12:15 AM 77.4 °F - 59.4 °F 54% 30.02 in 10.0 mi ESE 9.2 mph - N/A   Clear
12:55 AM 77.5 °F - 60.1 °F 55% 30.02 in 10.0 mi ESE 9.2 mph - N/A   Clear
1:15 AM 78.1 °F - 59.5 °F 53% 30.02 in 10.0 mi ESE 9.2 mph - N/A   Clear
1:35 AM 77.5 °F - 59.4 °F 53% 30.02 in 10.0 mi ESE 9.2 mph - N/A   Clear
1:55 AM 77.0 °F - 59.4 °F 54% 30.02 in 10.0 mi ESE 8.1 mph - N/A   Clear
2:15 AM 76.1 °F - 59.7 °F 57% 30.02 in 10.0 mi ESE 8.1 mph - N/A   Clear
2:35 AM 75.4 °F - 59.5 °F 58% 30.02 in 10.0 mi ESE 9.2 mph - N/A   Clear
2:55 AM 74.8 °F - 59.5 °F 59% 30.01 in 10.0 mi ESE 8.1 mph - N/A   Clear
3:15 AM 74.5 °F - 59.5 °F 60% 30.01 in 10.0 mi ESE 9.2 mph - N/A   Clear
3:35 AM 74.3 °F - 59.5 °F 60% 30.02 in 10.0 mi ESE 9.2 mph - N/A   Clear
3:55 AM 73.4 °F - 59.9 °F 63% 30.02 in 10.0 mi ESE 8.1 mph - N/A   Clear
4:15 AM 72.5 °F - 59.9 °F 64% 30.02 in 10.0 mi ESE 8.1 mph - N/A   Clear
4:35 AM 72.1 °F - 60.1 °F 66% 30.02 in 10.0 mi ESE 9.2 mph - N/A   Clear
4:55 AM 72.0 °F - 60.3 °F 67% 30.02 in 10.0 mi ESE 9.2 mph - N/A   Clear
5:15 AM 71.8 °F - 60.1 °F 67% 30.02 in 10.0 mi ESE 10.4 mph - N/A   Clear
5:35 AM 71.6 °F - 59.9 °F 66% 30.02 in 10.0 mi ESE 10.4 mph - N/A   Clear
5:55 AM 71.1 °F - 59.7 °F 67% 30.03 in 10.0 mi ESE 9.2 mph - N/A   Clear
6:15 AM 70.9 °F - 59.5 °F 67% 30.03 in 10.0 mi ESE 9.2 mph - N/A   Clear
6:35 AM 70.9 °F - 59.4 °F 67% 30.03 in 10.0 mi ESE 10.4 mph - N/A   Clear
6:55 AM 71.1 °F - 59.0 °F 66% 30.03 in 10.0 mi ESE 10.4 mph - N/A   Scattered Clouds
7:15 AM 71.6 °F - 59.0 °F 64% 30.03 in 10.0 mi ESE 9.2 mph - N/A   Scattered Clouds
7:35 AM 72.7 °F - 59.0 °F 62% 30.04 in 10.0 mi ESE 10.4 mph - N/A   Clear
7:55 AM 74.1 °F - 59.0 °F 59% 30.04 in 10.0 mi ESE 11.5 mph - N/A   Clear
8:15 AM 75.0 °F - 59.0 °F 57% 30.04 in 10.0 mi ESE 12.7 mph - N/A   Clear
8:35 AM 76.6 °F - 59.0 °F 54% 30.05 in 10.0 mi SE 11.5 mph - N/A   Clear
8:55 AM 78.3 °F - 58.8 °F 51% 30.05 in 10.0 mi SE 16.1 mph 21.9 mph N/A   Clear
9:15 AM 78.8 °F - 59.0 °F 51% 30.06 in 10.0 mi SE 13.8 mph 18.4 mph N/A   Clear
9:35 AM 79.9 °F - 59.0 °F 49% 30.05 in 10.0 mi SE 13.8 mph - N/A   Clear
9:55 AM 81.9 °F 82.1 °F 59.0 °F 46% 30.06 in 10.0 mi SE 12.7 mph - N/A   Clear
10:15 AM 84.4 °F 84.0 °F 59.0 °F 42% 30.06 in 10.0 mi SSE 12.7 mph - N/A   Clear
10:35 AM 86.2 °F 85.4 °F 58.6 °F 39% 30.06 in 10.0 mi SSE 12.7 mph 19.6 mph N/A   Clear
10:55 AM 87.6 °F 86.7 °F 58.5 °F 37% 30.06 in 10.0 mi SSE 12.7 mph - N/A   Clear
11:15 AM 89.8 °F 88.6 °F 57.9 °F 34% 30.06 in 10.0 mi South 13.8 mph - N/A   Clear
11:35 AM 90.5 °F 89.3 °F 57.7 °F 33% 30.05 in 10.0 mi South 13.8 mph - N/A   Clear
11:55 AM 91.4 °F 89.9 °F 57.2 °F 31% 30.05 in 10.0 mi South 12.7 mph - N/A   Clear
12:15 PM 92.5 °F 91.3 °F 57.6 °F 31% 30.05 in 10.0 mi South 17.3 mph 21.9 mph N/A   Clear
12:35 PM 93.0 °F 91.7 °F 57.7 °F 30% 30.04 in 10.0 mi South 15.0 mph 20.7 mph N/A   Clear
12:55 PM 94.3 °F 93.4 °F 58.1 °F 30% 30.03 in 10.0 mi South 12.7 mph 19.6 mph N/A   Clear
1:15 PM 95.5 °F 94.4 °F 57.9 °F 28% 30.03 in 10.0 mi South 17.3 mph 20.7 mph N/A   Clear
1:35 PM 95.9 °F 94.6 °F 57.2 °F 27% 30.02 in 10.0 mi South 13.8 mph 23.0 mph N/A   Clear
1:55 PM 95.9 °F 94.6 °F 56.7 °F 27% 30.01 in 10.0 mi SSE 13.8 mph 20.7 mph N/A   Clear
2:15 PM 96.4 °F 95.0 °F 56.3 °F 26% 30.00 in 10.0 mi South 15.0 mph 21.9 mph N/A   Clear
2:35 PM 96.8 °F 95.5 °F 56.8 °F 26% 30.00 in 10.0 mi SSE 12.7 mph 21.9 mph N/A   Clear
2:55 PM 97.2 °F 96.0 °F 56.8 °F 26% 30.00 in 10.0 mi SSE 15.0 mph 19.6 mph N/A   Clear
3:15 PM 97.5 °F 96.5 °F 57.0 °F 26% 29.99 in 7.0 mi SSE 12.7 mph 18.4 mph N/A   Clear
3:35 PM 97.5 °F 96.5 °F 56.8 °F 26% 29.99 in 10.0 mi South 9.2 mph 17.3 mph N/A   Clear
3:55 PM 97.5 °F 96.5 °F 56.8 °F 26% 29.98 in 10.0 mi SSE 15.0 mph 24.2 mph N/A   Clear
4:15 PM 98.1 °F 96.8 °F 56.3 °F 25% 29.97 in 10.0 mi SSE 11.5 mph 19.6 mph N/A   Clear
4:35 PM 98.2 °F 97.1 °F 56.8 °F 25% 29.97 in 10.0 mi South 16.1 mph 25.3 mph N/A   Clear
4:55 PM 97.5 °F 96.1 °F 56.7 °F 25% 29.97 in 10.0 mi SSE 15.0 mph 18.4 mph N/A   Clear
5:15 PM 97.0 °F 95.7 °F 56.7 °F 26% 29.97 in 10.0 mi SSE 16.1 mph 23.0 mph N/A   Clear
5:35 PM 97.0 °F 95.7 °F 56.3 °F 26% 29.97 in 10.0 mi South 13.8 mph 24.2 mph N/A   Clear
5:55 PM 97.0 °F 95.7 °F 56.5 °F 26% 29.97 in 10.0 mi South 17.3 mph - N/A   Clear
6:15 PM 96.4 °F 95.0 °F 56.7 °F 26% 29.97 in 10.0 mi SSE 12.7 mph 23.0 mph N/A   Clear
6:35 PM 95.9 °F 94.2 °F 56.3 °F 26% 29.97 in 10.0 mi SSW 13.8 mph 20.7 mph N/A   Clear
6:55 PM 95.2 °F 93.6 °F 55.8 °F 27% 29.97 in 10.0 mi South 11.5 mph - N/A   Clear
7:15 PM 94.8 °F 93.1 °F 55.8 °F 27% 29.97 in 10.0 mi South 12.7 mph 17.3 mph N/A   Clear
7:35 PM 94.1 °F 92.2 °F 55.6 °F 27% 29.97 in 10.0 mi South 11.5 mph - N/A   Clear
7:55 PM 93.0 °F 91.1 °F 55.6 °F 28% 29.97 in 10.0 mi South 12.7 mph - N/A   Clear
8:15 PM 91.4 °F 89.6 °F 55.8 °F 30% 29.98 in 10.0 mi SSE 11.5 mph - N/A   Clear
8:35 PM 89.2 °F 87.5 °F 55.9 °F 32% 29.98 in 10.0 mi SSE 9.2 mph - N/A   Clear
8:55 PM 88.0 °F 86.5 °F 55.9 °F 34% 29.98 in 10.0 mi SE 10.4 mph - N/A   Clear
9:15 PM 86.9 °F 85.5 °F 56.1 °F 35% 29.99 in 10.0 mi SE 10.4 mph - N/A   Clear
9:35 PM 86.4 °F 84.9 °F 55.8 °F 35% 29.99 in 10.0 mi SSE 10.4 mph - N/A   Clear
9:55 PM 85.6 °F 84.3 °F 55.9 °F 36% 30.00 in 10.0 mi SSE 10.4 mph - N/A   Clear
10:15 PM 84.9 °F 83.7 °F 56.3 °F 37% 30.01 in 10.0 mi SE 10.4 mph - N/A   Clear
10:35 PM 83.7 °F 82.8 °F 56.5 °F 39% 30.02 in 10.0 mi SE 9.2 mph - N/A   Clear
10:55 PM 83.3 °F 82.6 °F 56.7 °F 40% 30.02 in 10.0 mi SSE 9.2 mph - N/A   Clear
11:15 PM 82.4 °F 82.0 °F 57.0 °F 42% 30.03 in 10.0 mi SSE 9.2 mph - N/A   Clear
11:35 PM 82.0 °F 81.8 °F 57.2 °F 43% 30.03 in 10.0 mi SSE 9.2 mph - N/A   Clear
11:55 PM 82.4 °F 82.0 °F 56.8 °F 42% 30.03 in 10.0 mi SSE 9.2 mph - N/A   Clear